Time,TemperatureF,DewpointF,PressureIn,WindDirection,WindDirectionDegrees,WindSpeedMPH,WindSpeedGustMPH,Humidity,HourlyPrecipIn,Conditions,Clouds,dailyrainin,SoftwareType,DateUTC
2013-02-17 00:02:00,34.0,22.0,30.10,South,173,7.0,-999.0,60,-99.99,,,-99.99,,2013-02-17 06:02:00,
2013-02-17 00:11:00,34.0,22.0,30.10,South,173,7.0,-999.0,60,-99.99,,,-99.99,,2013-02-17 06:11:00,
2013-02-17 00:21:00,34.0,22.0,30.10,South,173,4.0,-999.0,61,-99.99,,,-99.99,,2013-02-17 06:21:00,
2013-02-17 00:31:00,33.0,21.0,30.10,South,173,3.0,-999.0,62,-99.99,,,-99.99,,2013-02-17 06:31:00,
2013-02-17 00:41:00,33.0,21.0,30.10,South,173,3.0,-999.0,62,-99.99,,,-99.99,,2013-02-17 06:41:00,
2013-02-17 00:52:00,33.0,22.0,30.09,South,173,4.0,-999.0,63,-99.99,,,-99.99,,2013-02-17 06:52:00,
2013-02-17 01:01:00,33.0,22.0,30.09,South,173,4.0,-999.0,63,-99.99,,,-99.99,,2013-02-17 07:01:00,
2013-02-17 01:11:00,32.0,21.0,30.09,South,173,4.0,-999.0,64,-99.99,,,-99.99,,2013-02-17 07:11:00,
2013-02-17 01:21:00,32.0,21.0,30.09,South,173,4.0,-999.0,64,-99.99,,,-99.99,,2013-02-17 07:21:00,
2013-02-17 01:31:00,31.0,21.0,30.09,South,173,0.0,-999.0,66,-99.99,,,-99.99,,2013-02-17 07:31:00,
2013-02-17 01:42:00,31.0,21.0,30.09,South,173,0.0,-999.0,66,-99.99,,,-99.99,,2013-02-17 07:42:00,
2013-02-17 01:52:00,30.0,20.0,30.08,South,173,0.0,-999.0,67,-99.99,,,-99.99,,2013-02-17 07:52:00,
2013-02-17 02:01:00,29.0,20.0,30.08,South,173,0.0,-999.0,69,-99.99,,,-99.99,,2013-02-17 08:01:00,
2013-02-17 02:11:00,29.0,20.0,30.08,South,173,0.0,-999.0,69,-99.99,,,-99.99,,2013-02-17 08:11:00,
2013-02-17 02:21:00,29.0,20.0,30.08,South,173,0.0,-999.0,69,-99.99,,,-99.99,,2013-02-17 08:21:00,
2013-02-17 02:31:00,29.0,20.0,30.08,South,173,0.0,-999.0,68,-99.99,,,-99.99,,2013-02-17 08:31:00,
2013-02-17 02:42:00,29.0,20.0,30.08,South,173,0.0,-999.0,68,-99.99,,,-99.99,,2013-02-17 08:42:00,
2013-02-17 02:52:00,27.0,19.0,30.08,South,173,0.0,-999.0,70,-99.99,,,-99.99,,2013-02-17 08:52:00,
2013-02-17 03:01:00,26.0,18.0,30.08,South,173,0.0,-999.0,72,-99.99,,,-99.99,,2013-02-17 09:01:00,
2013-02-17 03:11:00,26.0,18.0,30.08,South,173,0.0,-999.0,72,-99.99,,,-99.99,,2013-02-17 09:11:00,
2013-02-17 03:21:00,26.0,19.0,30.08,South,173,0.0,-999.0,73,-99.99,,,-99.99,,2013-02-17 09:21:00,
2013-02-17 03:31:00,25.0,18.0,30.08,South,173,0.0,-999.0,74,-99.99,,,-99.99,,2013-02-17 09:31:00,
2013-02-17 03:41:00,25.0,18.0,30.08,South,173,0.0,-999.0,74,-99.99,,,-99.99,,2013-02-17 09:41:00,
2013-02-17 03:52:00,24.0,18.0,30.07,South,173,0.0,-999.0,76,-99.99,,,-99.99,,2013-02-17 09:52:00,
2013-02-17 04:01:00,24.0,18.0,30.07,South,173,0.0,-999.0,77,-99.99,,,-99.99,,2013-02-17 10:01:00,
2013-02-17 04:11:00,24.0,18.0,30.07,South,173,0.0,-999.0,77,-99.99,,,-99.99,,2013-02-17 10:11:00,
2013-02-17 04:21:00,23.0,17.0,30.06,South,173,0.0,-999.0,79,-99.99,,,-99.99,,2013-02-17 10:21:00,
2013-02-17 04:31:00,23.0,18.0,30.06,South,173,0.0,-999.0,80,-99.99,,,-99.99,,2013-02-17 10:31:00,
2013-02-17 04:41:00,23.0,18.0,30.06,South,173,0.0,-999.0,80,-99.99,,,-99.99,,2013-02-17 10:41:00,
2013-02-17 04:52:00,23.0,18.0,30.06,South,173,0.0,-999.0,81,-99.99,,,-99.99,,2013-02-17 10:52:00,
2013-02-17 05:01:00,23.0,18.0,30.06,South,173,0.0,-999.0,81,-99.99,,,-99.99,,2013-02-17 11:01:00,
2013-02-17 05:11:00,23.0,18.0,30.06,South,173,0.0,-999.0,81,-99.99,,,-99.99,,2013-02-17 11:11:00,
2013-02-17 05:21:00,23.0,18.0,30.06,South,173,0.0,-999.0,82,-99.99,,,-99.99,,2013-02-17 11:21:00,
2013-02-17 05:32:00,23.0,19.0,30.06,South,173,0.0,-999.0,83,-99.99,,,-99.99,,2013-02-17 11:32:00,
2013-02-17 05:42:00,23.0,19.0,30.06,South,173,0.0,-999.0,83,-99.99,,,-99.99,,2013-02-17 11:42:00,
2013-02-17 05:52:00,24.0,19.0,30.06,South,173,0.0,-999.0,82,-99.99,,,-99.99,,2013-02-17 11:52:00,
2013-02-17 06:03:00,23.0,19.0,30.06,South,173,0.0,-999.0,83,-99.99,,,-99.99,,2013-02-17 12:03:00,
2013-02-17 06:11:00,23.0,19.0,30.06,South,173,0.0,-999.0,83,-99.99,,,-99.99,,2013-02-17 12:11:00,
2013-02-17 06:22:00,23.0,19.0,30.05,South,173,0.0,-999.0,83,-99.99,,,-99.99,,2013-02-17 12:22:00,
2013-02-17 06:32:00,23.0,19.0,30.05,South,173,0.0,-999.0,84,-99.99,,,-99.99,,2013-02-17 12:32:00,
2013-02-17 06:42:00,23.0,19.0,30.05,South,173,0.0,-999.0,84,-99.99,,,-99.99,,2013-02-17 12:42:00,
2013-02-17 06:52:00,22.0,18.0,30.06,South,173,0.0,-999.0,84,-99.99,,,-99.99,,2013-02-17 12:52:00,
2013-02-17 07:02:00,22.0,18.0,30.06,South,173,0.0,-999.0,84,-99.99,,,-99.99,,2013-02-17 13:02:00,
2013-02-17 07:12:00,22.0,18.0,30.06,South,173,0.0,-999.0,84,-99.99,,,-99.99,,2013-02-17 13:12:00,
2013-02-17 07:21:00,22.0,18.0,30.04,South,173,0.0,-999.0,85,-99.99,,,-99.99,,2013-02-17 13:21:00,
2013-02-17 07:32:00,22.0,18.0,30.04,South,173,0.0,-999.0,85,-99.99,,,-99.99,,2013-02-17 13:32:00,
2013-02-17 07:42:00,22.0,18.0,30.04,South,173,0.0,-999.0,85,-99.99,,,-99.99,,2013-02-17 13:42:00,
2013-02-17 07:52:00,22.0,18.0,30.03,South,173,0.0,-999.0,85,-99.99,,,-99.99,,2013-02-17 13:52:00,
2013-02-17 08:01:00,22.0,18.0,30.03,South,173,0.0,-999.0,86,-99.99,,,-99.99,,2013-02-17 14:01:00,
2013-02-17 08:11:00,22.0,18.0,30.03,South,173,0.0,-999.0,86,-99.99,,,-99.99,,2013-02-17 14:11:00,
2013-02-17 08:21:00,24.0,21.0,30.04,South,173,0.0,-999.0,87,-99.99,,,-99.99,,2013-02-17 14:21:00,
2013-02-17 08:32:00,27.0,24.0,30.03,South,173,0.0,-999.0,88,-99.99,,,-99.99,,2013-02-17 14:32:00,
2013-02-17 08:42:00,27.0,24.0,30.03,South,173,0.0,-999.0,88,-99.99,,,-99.99,,2013-02-17 14:42:00,
2013-02-17 08:53:00,31.0,26.0,30.03,SSE,157,3.0,-999.0,80,-99.99,,,-99.99,,2013-02-17 14:53:00,
2013-02-17 09:02:00,33.0,26.0,30.02,SSE,160,3.0,-999.0,74,-99.99,,,-99.99,,2013-02-17 15:02:00,
2013-02-17 09:11:00,33.0,26.0,30.02,SSE,160,3.0,-999.0,74,-99.99,,,-99.99,,2013-02-17 15:11:00,
2013-02-17 09:21:00,34.0,24.0,30.02,SSE,168,4.0,-999.0,67,-99.99,,,-99.99,,2013-02-17 15:21:00,
2013-02-17 09:32:00,34.0,24.0,30.02,SSE,168,4.0,-999.0,67,-99.99,,,-99.99,,2013-02-17 15:32:00,
2013-02-17 09:41:00,34.0,24.0,30.02,SSE,168,4.0,-999.0,67,-99.99,,,-99.99,,2013-02-17 15:41:00,
2013-02-17 09:52:00,37.0,25.0,30.01,South,173,7.0,-999.0,62,-99.99,,,-99.99,,2013-02-17 15:52:00,
2013-02-17 10:01:00,38.0,25.0,30.01,South,173,8.0,-999.0,59,-99.99,,,-99.99,,2013-02-17 16:01:00,
2013-02-17 10:11:00,38.0,25.0,30.01,South,173,8.0,-999.0,59,-99.99,,,-99.99,,2013-02-17 16:11:00,
2013-02-17 10:21:00,38.0,25.0,30.01,South,173,8.0,-999.0,59,-99.99,,,-99.99,,2013-02-17 16:21:00,
2013-02-17 10:32:00,40.0,26.0,30.00,SSE,162,7.0,-999.0,56,-99.99,,,-99.99,,2013-02-17 16:32:00,
2013-02-17 10:41:00,40.0,26.0,30.00,SSE,162,7.0,-999.0,56,-99.99,,,-99.99,,2013-02-17 16:41:00,
2013-02-17 10:52:00,41.0,26.0,30.00,SSE,167,7.0,-999.0,54,-99.99,,,-99.99,,2013-02-17 16:52:00,
2013-02-17 11:02:00,41.0,26.0,30.00,SSE,167,7.0,-999.0,54,-99.99,,,-99.99,,2013-02-17 17:02:00,
2013-02-17 11:11:00,41.0,26.0,30.00,SSE,167,7.0,-999.0,54,-99.99,,,-99.99,,2013-02-17 17:11:00,
2013-02-17 11:21:00,44.0,27.0,29.98,South,169,8.0,-999.0,50,-99.99,,,-99.99,,2013-02-17 17:21:00,
2013-02-17 11:32:00,45.0,27.0,29.97,SSE,164,7.0,-999.0,49,-99.99,,,-99.99,,2013-02-17 17:32:00,
2013-02-17 11:42:00,45.0,27.0,29.97,SSE,164,7.0,-999.0,49,-99.99,,,-99.99,,2013-02-17 17:42:00,
2013-02-17 11:52:00,45.0,27.0,29.97,SSE,164,7.0,-999.0,49,-99.99,,,-99.99,,2013-02-17 17:52:00,
2013-02-17 12:02:00,48.0,29.0,29.96,South,170,8.0,-999.0,47,-99.99,,,-99.99,,2013-02-17 18:02:00,
2013-02-17 12:11:00,48.0,29.0,29.96,South,170,8.0,-999.0,47,-99.99,,,-99.99,,2013-02-17 18:11:00,
2013-02-17 12:22:00,50.0,29.0,29.95,South,177,8.0,-999.0,45,-99.99,,,-99.99,,2013-02-17 18:22:00,
2013-02-17 12:33:00,50.0,29.0,29.93,SSE,163,8.0,-999.0,44,-99.99,,,-99.99,,2013-02-17 18:33:00,
2013-02-17 12:42:00,50.0,29.0,29.93,SSE,163,8.0,-999.0,44,-99.99,,,-99.99,,2013-02-17 18:42:00,
2013-02-17 12:52:00,52.0,31.0,29.91,South,169,9.0,-999.0,45,-99.99,,,-99.99,,2013-02-17 18:52:00,
2013-02-17 13:01:00,53.0,31.0,29.90,SSE,164,9.0,-999.0,43,-99.99,,,-99.99,,2013-02-17 19:01:00,
2013-02-17 13:11:00,53.0,31.0,29.90,SSE,164,9.0,-999.0,43,-99.99,,,-99.99,,2013-02-17 19:11:00,
2013-02-17 13:21:00,54.0,32.0,29.89,South,171,7.0,-999.0,43,-99.99,,,-99.99,,2013-02-17 19:21:00,
2013-02-17 13:32:00,54.0,31.0,29.88,SSE,161,7.0,-999.0,42,-99.99,,,-99.99,,2013-02-17 19:32:00,
2013-02-17 13:42:00,54.0,31.0,29.88,SSE,161,7.0,-999.0,42,-99.99,,,-99.99,,2013-02-17 19:42:00,
2013-02-17 13:52:00,54.0,31.0,29.87,South,176,8.0,-999.0,42,-99.99,,,-99.99,,2013-02-17 19:52:00,
2013-02-17 14:01:00,55.0,32.0,29.86,South,173,10.0,-999.0,41,-99.99,,,-99.99,,2013-02-17 20:01:00,
2013-02-17 14:11:00,55.0,32.0,29.86,South,173,10.0,-999.0,41,-99.99,,,-99.99,,2013-02-17 20:11:00,
2013-02-17 14:21:00,55.0,32.0,29.85,South,175,11.0,-999.0,41,-99.99,,,-99.99,,2013-02-17 20:21:00,
2013-02-17 14:32:00,56.0,31.0,29.84,SSE,158,8.0,-999.0,39,-99.99,,,-99.99,,2013-02-17 20:32:00,
2013-02-17 14:42:00,56.0,31.0,29.84,SSE,158,8.0,-999.0,39,-99.99,,,-99.99,,2013-02-17 20:42:00,
2013-02-17 14:52:00,57.0,33.0,29.83,South,176,7.0,-999.0,40,-99.99,,,-99.99,,2013-02-17 20:52:00,
2013-02-17 15:01:00,56.0,33.0,29.82,South,184,9.0,-999.0,41,-99.99,,,-99.99,,2013-02-17 21:01:00,
2013-02-17 15:11:00,56.0,33.0,29.82,South,184,9.0,-999.0,41,-99.99,,,-99.99,,2013-02-17 21:11:00,
2013-02-17 15:21:00,58.0,33.0,29.81,South,175,10.0,-999.0,39,-99.99,,,-99.99,,2013-02-17 21:21:00,
2013-02-17 15:31:00,58.0,33.0,29.80,South,172,10.0,-999.0,39,-99.99,,,-99.99,,2013-02-17 21:31:00,
2013-02-17 15:41:00,58.0,33.0,29.80,South,172,10.0,-999.0,39,-99.99,,,-99.99,,2013-02-17 21:41:00,
2013-02-17 16:01:00,57.0,34.0,29.79,South,173,9.0,-999.0,41,-99.99,,,-99.99,,2013-02-17 22:01:00,
2013-02-17 16:12:00,57.0,34.0,29.79,South,173,9.0,-999.0,41,-99.99,,,-99.99,,2013-02-17 22:12:00,
2013-02-17 16:21:00,57.0,34.0,29.79,South,171,9.0,-999.0,41,-99.99,,,-99.99,,2013-02-17 22:21:00,
2013-02-17 16:32:00,57.0,34.0,29.78,South,173,9.0,-999.0,41,-99.99,,,-99.99,,2013-02-17 22:32:00,
2013-02-17 16:42:00,57.0,34.0,29.78,South,173,9.0,-999.0,41,-99.99,,,-99.99,,2013-02-17 22:42:00,
2013-02-17 16:52:00,56.0,33.0,29.78,South,172,9.0,-999.0,42,-99.99,,,-99.99,,2013-02-17 22:52:00,
2013-02-17 17:02:00,56.0,34.0,29.77,South,175,10.0,-999.0,43,-99.99,,,-99.99,,2013-02-17 23:02:00,
2013-02-17 17:11:00,56.0,34.0,29.77,South,175,10.0,-999.0,43,-99.99,,,-99.99,,2013-02-17 23:11:00,
2013-02-17 17:21:00,55.0,33.0,29.77,South,186,4.0,-999.0,44,-99.99,,,-99.99,,2013-02-17 23:21:00,
2013-02-17 17:32:00,55.0,34.0,29.75,SSE,156,0.0,-999.0,45,-99.99,,,-99.99,,2013-02-17 23:32:00,
2013-02-17 17:42:00,55.0,34.0,29.75,SSE,156,0.0,-999.0,45,-99.99,,,-99.99,,2013-02-17 23:42:00,
2013-02-17 17:52:00,54.0,33.0,29.75,SSE,165,2.0,-999.0,45,-99.99,,,-99.99,,2013-02-17 23:52:00,
2013-02-17 18:01:00,53.0,33.0,29.74,SSE,161,0.0,-999.0,47,-99.99,,,-99.99,,2013-02-18 00:01:00,
2013-02-17 18:11:00,53.0,33.0,29.74,SSE,161,0.0,-999.0,47,-99.99,,,-99.99,,2013-02-18 00:11:00,
2013-02-17 18:22:00,52.0,33.0,29.73,SSE,161,0.0,-999.0,48,-99.99,,,-99.99,,2013-02-18 00:22:00,
2013-02-17 18:31:00,51.0,34.0,29.73,SSE,167,0.0,-999.0,51,-99.99,,,-99.99,,2013-02-18 00:31:00,
2013-02-17 18:41:00,51.0,34.0,29.73,SSE,167,0.0,-999.0,51,-99.99,,,-99.99,,2013-02-18 00:41:00,
2013-02-17 18:52:00,50.0,33.0,29.74,SSE,167,1.0,-999.0,51,-99.99,,,-99.99,,2013-02-18 00:52:00,
2013-02-17 19:01:00,50.0,34.0,29.73,SSE,168,2.0,-999.0,53,-99.99,,,-99.99,,2013-02-18 01:01:00,
2013-02-17 19:11:00,50.0,34.0,29.73,SSE,168,2.0,-999.0,53,-99.99,,,-99.99,,2013-02-18 01:11:00,
2013-02-17 19:21:00,50.0,34.0,29.73,SSE,168,3.0,-999.0,53,-99.99,,,-99.99,,2013-02-18 01:21:00,
2013-02-17 19:31:00,50.0,34.0,29.73,South,169,3.0,-999.0,53,-99.99,,,-99.99,,2013-02-18 01:31:00,
2013-02-17 19:41:00,50.0,34.0,29.73,South,169,3.0,-999.0,53,-99.99,,,-99.99,,2013-02-18 01:41:00,
2013-02-17 19:52:00,50.0,34.0,29.72,South,169,1.0,-999.0,53,-99.99,,,-99.99,,2013-02-18 01:52:00,
2013-02-17 20:01:00,50.0,34.0,29.72,South,169,0.0,-999.0,54,-99.99,,,-99.99,,2013-02-18 02:01:00,
2013-02-17 20:11:00,50.0,34.0,29.72,South,169,0.0,-999.0,54,-99.99,,,-99.99,,2013-02-18 02:11:00,
2013-02-17 20:21:00,50.0,34.0,29.71,South,170,1.0,-999.0,54,-99.99,,,-99.99,,2013-02-18 02:21:00,
2013-02-17 20:32:00,50.0,34.0,29.71,SSE,167,2.0,-999.0,54,-99.99,,,-99.99,,2013-02-18 02:32:00,
2013-02-17 20:41:00,50.0,34.0,29.71,SSE,167,2.0,-999.0,54,-99.99,,,-99.99,,2013-02-18 02:41:00,
2013-02-17 20:52:00,50.0,34.0,29.71,South,172,6.0,-999.0,54,-99.99,,,-99.99,,2013-02-18 02:52:00,
2013-02-17 21:01:00,50.0,34.0,29.70,South,178,2.0,-999.0,54,-99.99,,,-99.99,,2013-02-18 03:01:00,
2013-02-17 21:11:00,50.0,34.0,29.70,South,178,2.0,-999.0,54,-99.99,,,-99.99,,2013-02-18 03:11:00,
2013-02-17 21:21:00,49.0,33.0,29.70,South,179,2.0,-999.0,54,-99.99,,,-99.99,,2013-02-18 03:21:00,
2013-02-17 21:31:00,49.0,34.0,29.70,South,179,0.0,-999.0,55,-99.99,,,-99.99,,2013-02-18 03:31:00,
2013-02-17 21:42:00,49.0,34.0,29.70,South,179,0.0,-999.0,55,-99.99,,,-99.99,,2013-02-18 03:42:00,
2013-02-17 21:52:00,48.0,34.0,29.69,South,179,0.0,-999.0,57,-99.99,,,-99.99,,2013-02-18 03:52:00,
2013-02-17 22:01:00,49.0,34.0,29.68,South,179,0.0,-999.0,56,-99.99,,,-99.99,,2013-02-18 04:01:00,
2013-02-17 22:11:00,49.0,34.0,29.68,South,179,0.0,-999.0,56,-99.99,,,-99.99,,2013-02-18 04:11:00,
2013-02-17 22:21:00,49.0,34.0,29.68,South,179,0.0,-999.0,55,-99.99,,,-99.99,,2013-02-18 04:21:00,
2013-02-17 22:32:00,50.0,34.0,29.67,South,179,4.0,-999.0,53,-99.99,,,-99.99,,2013-02-18 04:32:00,
2013-02-17 22:41:00,50.0,34.0,29.67,South,179,4.0,-999.0,53,-99.99,,,-99.99,,2013-02-18 04:41:00,
2013-02-17 22:52:00,50.0,34.0,29.67,South,179,1.0,-999.0,53,-99.99,,,-99.99,,2013-02-18 04:52:00,
2013-02-17 23:02:00,49.0,33.0,29.66,South,176,0.0,-999.0,54,-99.99,,,-99.99,,2013-02-18 05:02:00,
2013-02-17 23:11:00,49.0,33.0,29.66,South,176,0.0,-999.0,54,-99.99,,,-99.99,,2013-02-18 05:11:00,
2013-02-17 23:21:00,51.0,35.0,29.66,South,179,7.0,-999.0,54,-99.99,,,-99.99,,2013-02-18 05:21:00,
2013-02-17 23:31:00,52.0,34.0,29.66,South,184,7.0,-999.0,51,-99.99,,,-99.99,,2013-02-18 05:31:00,
2013-02-17 23:41:00,52.0,34.0,29.66,South,184,7.0,-999.0,51,-99.99,,,-99.99,,2013-02-18 05:41:00,
2013-02-17 23:52:00,52.0,34.0,29.65,SSE,164,4.0,-999.0,51,-99.99,,,-99.99,,2013-02-18 05:52:00,